Alva, OK

1:03 PM CDT on July 28, 2016 (GMT -0500)
Alva Regional

Weather History for KAVK - December, 2012

Change the Weather History Date:

Thursday, December 27, 2012

  Actual Average Record
Temperature  
Mean Temperature 26 °F -  
Max Temperature 32 °F 48 °F 73 °F (1976)
Min Temperature 19 °F 26 °F 6 °F (1962)
Degree Days  
Heating Degree Days 40    
Moisture  
Dew Point 19 °F    
Average Humidity 79    
Maximum Humidity 93    
Minimum Humidity 64    
Precipitation  
Precipitation 0.00 in - - ()
Sea Level Pressure  
Sea Level Pressure 29.91 in    
Wind  
Wind Speed 10 mph (SE)    
Max Wind Speed 16 mph    
Max Gust Speed 23 mph    
Visibility 9 miles    
Events      
Averages and records for this station are not official NWS values.
T = Trace of Precipitation, MM = Missing Value Source: NWS Daily Summary

Daily Weather History Graph

Daily Weather History Graph

Search for Another Location

Airport or City:

Trip Planner

Search our weather history database for the weather conditions in past years. The results will help you decide how hot, cold, wet, or windy it might be!

Date:

Astronomy

Dec. 27, 2012 Rise Set
Actual Time 7:46 AM CST 5:25 PM CST
Civil Twilight 7:17 AM CST 5:54 PM CST
Nautical Twilight 6:44 AM CST 6:27 PM CST
Astronomical Twilight 6:13 AM CST 6:58 PM CST
Moon 5:09 PM CST (12/27) 6:59 AM CST (12/27)
Length of Visible Light 10h 37m
Length of Day
9h 39m
Full, 100% of the Moon is Illuminated
Dec 27
Full
Dec 28
Full
Jan 4
Last Quarter
Jan 11
New
Jan 18
First Quarter

Hourly Weather History & Observations

Time (CST) Temp. Windchill Dew Point Humidity Pressure Visibility Wind Dir Wind Speed Gust Speed Precip Events Conditions
12:15 AM 23.0 °F 10.6 °F 14.0 °F 68% 30.01 in 10.0 mi SSE 13.8 mph - N/A   Scattered Clouds
12:35 AM 23.0 °F 11.7 °F 15.8 °F 74% 30.02 in 10.0 mi SSE 11.5 mph - N/A   Scattered Clouds
12:55 AM 23.0 °F 14.7 °F 15.8 °F 74% 30.02 in 10.0 mi SSE 6.9 mph - N/A   Mostly Cloudy
1:15 AM 23.0 °F 12.4 °F 15.8 °F 74% 30.02 in 10.0 mi SSE 10.4 mph - N/A   Overcast
1:35 AM 23.0 °F 17.0 °F 15.8 °F 74% 30.04 in 10.0 mi South 4.6 mph - N/A   Mostly Cloudy
1:55 AM 19.4 °F 10.4 °F 14.0 °F 80% 30.03 in 10.0 mi SSE 6.9 mph - N/A   Mostly Cloudy
2:15 AM 19.4 °F 10.4 °F 15.8 °F 86% 30.03 in 10.0 mi ESE 6.9 mph - N/A   Scattered Clouds
2:35 AM 19.4 °F 9.5 °F 15.8 °F 86% 30.02 in 10.0 mi SE 8.1 mph - N/A   Scattered Clouds
2:55 AM 21.2 °F 9.5 °F 15.8 °F 80% 30.00 in 10.0 mi SE 11.5 mph - N/A   Scattered Clouds
3:15 AM 19.4 °F 6.0 °F 15.8 °F 86% 29.98 in 10.0 mi SE 13.8 mph - N/A   Clear
3:35 AM 19.4 °F 6.6 °F 15.8 °F 86% 29.97 in 10.0 mi SE 12.7 mph - N/A   Scattered Clouds
3:55 AM 19.4 °F 7.2 °F 15.8 °F 86% 29.95 in 10.0 mi SSE 11.5 mph - N/A   Scattered Clouds
4:15 AM 19.4 °F 5.5 °F 15.8 °F 86% 29.94 in 10.0 mi SSE 15.0 mph - N/A   Mostly Cloudy
4:35 AM 19.4 °F 6.6 °F 15.8 °F 86% 29.92 in 10.0 mi SSE 12.7 mph - N/A   Scattered Clouds
4:55 AM 19.4 °F 5.0 °F 15.8 °F 86% 29.90 in 10.0 mi SSE 16.1 mph - N/A   Scattered Clouds
5:15 AM 19.4 °F 5.0 °F 15.8 °F 86% 29.88 in 10.0 mi SSE 16.1 mph 23.0 mph N/A   Partly Cloudy
5:35 AM 19.4 °F 6.6 °F 15.8 °F 86% 29.89 in 10.0 mi SSE 12.7 mph - N/A   Clear
5:55 AM 19.4 °F 6.6 °F 15.8 °F 86% 29.89 in 9.0 mi SSE 12.7 mph - N/A   Clear
6:35 AM 19.4 °F 8.6 °F 15.8 °F 86% 29.90 in 9.0 mi SSE 9.2 mph - N/A   Clear
6:55 AM 19.4 °F 9.5 °F 15.8 °F 86% 29.91 in 9.0 mi SE 8.1 mph - N/A   Clear
7:15 AM 19.4 °F 9.5 °F 15.8 °F 86% 29.91 in 8.0 mi SE 8.1 mph - N/A   Clear
7:35 AM 19.4 °F 7.9 °F 15.8 °F 86% 29.90 in 8.0 mi SE 10.4 mph - N/A   Clear
7:55 AM 19.4 °F 8.6 °F 15.8 °F 86% 29.91 in 7.0 mi SE 9.2 mph - N/A   Clear
8:15 AM 19.4 °F 9.5 °F 15.8 °F 86% 29.90 in 5.0 mi SE 8.1 mph - N/A   Clear
8:35 AM 19.4 °F 7.2 °F 17.6 °F 93% 29.88 in 6.0 mi SSE 11.5 mph - N/A   Clear
8:55 AM 21.2 °F 8.3 °F 17.6 °F 86% 29.88 in 7.0 mi SSE 13.8 mph - N/A   Clear
9:15 AM 23.0 °F 10.6 °F 17.6 °F 80% 29.88 in 7.0 mi SSE 13.8 mph - N/A   Clear
9:35 AM 23.0 °F 12.4 °F 19.4 °F 86% 29.89 in 7.0 mi SSE 10.4 mph - N/A   Clear
9:55 AM 23.0 °F 11.7 °F 19.4 °F 86% 29.89 in 8.0 mi SSE 11.5 mph - N/A   Clear
10:15 AM 23.0 °F 12.4 °F 19.4 °F 86% 29.89 in 8.0 mi SSE 10.4 mph - N/A   Clear
10:35 AM 24.8 °F 13.4 °F 19.4 °F 80% 29.88 in 8.0 mi South 12.7 mph - N/A   Clear
10:55 AM 24.8 °F 14.0 °F 19.4 °F 80% 29.89 in 8.0 mi South 11.5 mph - N/A   Clear
11:15 AM 26.6 °F 17.5 °F 19.4 °F 74% 29.89 in 8.0 mi South 9.2 mph - N/A   Clear
11:35 AM 26.6 °F 18.2 °F 21.2 °F 80% 29.88 in 9.0 mi South 8.1 mph - N/A   Partly Cloudy
11:55 AM 28.4 °F 21.2 °F 21.2 °F 74% 29.87 in 9.0 mi South 6.9 mph - N/A   Partly Cloudy
12:15 PM 32.0 °F 21.6 °F 23.0 °F 69% 29.85 in 10.0 mi SSW 15.0 mph - N/A   Clear
12:35 PM 32.0 °F 21.6 °F 23.0 °F 69% 29.85 in 9.0 mi SSW 15.0 mph 19.6 mph N/A   Clear
1:15 PM 32.0 °F 22.1 °F 23.0 °F 69% 29.84 in 10.0 mi SSW 13.8 mph - N/A   Clear
1:35 PM 32.0 °F 23.0 °F 21.2 °F 64% 29.83 in 10.0 mi SW 11.5 mph - N/A   Clear
2:15 PM 32.0 °F 24.2 °F 23.0 °F 69% 29.82 in 9.0 mi SSW 9.2 mph - N/A   Clear
2:35 PM 32.0 °F 25.6 °F 23.0 °F 69% 29.82 in 9.0 mi SW 6.9 mph - N/A   Clear
2:55 PM 32.0 °F 25.6 °F 23.0 °F 69% 29.83 in 10.0 mi South 6.9 mph - N/A   Scattered Clouds
3:15 PM 32.0 °F 28.7 °F 23.0 °F 69% 29.83 in 9.0 mi South 3.5 mph - N/A   Overcast
3:35 PM 32.0 °F 27.5 °F 23.0 °F 69% 29.83 in 10.0 mi South 4.6 mph - N/A   Overcast
3:55 PM 32.0 °F 27.5 °F 23.0 °F 69% 29.84 in 9.0 mi SSE 4.6 mph - N/A   Overcast
4:15 PM 32.0 °F - 23.0 °F 69% 29.84 in 10.0 mi Calm Calm - N/A   Overcast
4:35 PM 32.0 °F 27.5 °F 23.0 °F 69% 29.84 in 10.0 mi South 4.6 mph - N/A   Scattered Clouds
4:55 PM 32.0 °F 27.5 °F 23.0 °F 69% 29.84 in 9.0 mi SE 4.6 mph - N/A   Clear
5:15 PM 32.0 °F 28.7 °F 23.0 °F 69% 29.84 in 7.0 mi East 3.5 mph - N/A   Clear
5:35 PM 32.0 °F 28.7 °F 23.0 °F 69% 29.86 in 7.0 mi ESE 3.5 mph - N/A   Partly Cloudy
5:55 PM 30.2 °F 26.7 °F 23.0 °F 75% 29.86 in 10.0 mi East 3.5 mph - N/A   Mostly Cloudy
6:35 PM 28.4 °F - 23.0 °F 80% 29.88 in 9.0 mi Calm Calm - N/A   Overcast
6:55 PM 28.4 °F 23.3 °F 23.0 °F 80% 29.89 in 10.0 mi NE 4.6 mph - N/A   Overcast
7:15 PM 26.6 °F 19.1 °F 21.2 °F 80% 29.88 in 10.0 mi NNE 6.9 mph - N/A   Overcast
7:35 PM 26.6 °F 21.2 °F 21.2 °F 80% 29.90 in 10.0 mi North 4.6 mph - N/A   Mostly Cloudy
7:55 PM 28.4 °F 23.3 °F 21.2 °F 74% 29.90 in 10.0 mi NNE 4.6 mph - N/A   Scattered Clouds
8:15 PM 26.6 °F 19.1 °F 21.2 °F 80% 29.91 in 10.0 mi NNE 6.9 mph - N/A   Mostly Cloudy
8:35 PM 26.6 °F 19.1 °F 21.2 °F 80% 29.93 in 10.0 mi North 6.9 mph - N/A   Overcast
8:55 PM 26.6 °F 19.1 °F 21.2 °F 80% 29.93 in 10.0 mi NNE 6.9 mph - N/A   Overcast
9:15 PM 26.6 °F 19.1 °F 19.4 °F 74% 29.93 in 10.0 mi NNE 6.9 mph - N/A   Overcast
9:35 PM 24.8 °F 17.9 °F 19.4 °F 80% 29.94 in 10.0 mi North 5.8 mph - N/A   Overcast
9:55 PM 24.8 °F 16.9 °F 19.4 °F 80% 29.94 in 10.0 mi North 6.9 mph - N/A   Overcast
10:15 PM 26.6 °F 20.0 °F 21.2 °F 80% 29.95 in 10.0 mi North 5.8 mph - N/A   Overcast
10:35 PM 26.6 °F 19.1 °F 21.2 °F 80% 29.95 in 10.0 mi North 6.9 mph - N/A   Overcast
10:55 PM 26.6 °F 17.5 °F 21.2 °F 80% 29.96 in 10.0 mi North 9.2 mph - N/A   Overcast
11:15 PM 26.6 °F 17.5 °F 21.2 °F 80% 29.97 in 10.0 mi North 9.2 mph - N/A   Overcast
11:35 PM 26.6 °F 18.2 °F 21.2 °F 80% 29.98 in 10.0 mi NNW 8.1 mph - N/A   Overcast
11:55 PM 26.6 °F 16.2 °F 19.4 °F 74% 29.98 in 10.0 mi North 11.5 mph - N/A   Overcast